Time,TemperatureF,DewpointF,PressureIn,WindDirection,WindDirectionDegrees,WindSpeedMPH,WindSpeedGustMPH,Humidity,HourlyPrecipIn,Conditions,Clouds,dailyrainin,SoftwareType,DateUTC
2013-07-20 00:01:00,64.0,56.0,30.26,North,0,0.0,2.0,75,0.00,,,0.07,,2013-07-20 07:01:00,
2013-07-20 00:12:00,64.0,56.0,30.26,North,0,0.0,2.0,75,0.00,,,0.07,,2013-07-20 07:12:00,
2013-07-20 00:33:00,64.0,57.0,30.27,North,11,2.0,3.0,79,0.00,,,0.07,,2013-07-20 07:33:00,
2013-07-20 00:44:00,64.0,58.0,30.27,NNE,20,1.0,4.0,80,0.00,,,0.07,,2013-07-20 07:44:00,
2013-07-20 00:54:00,64.0,57.0,30.27,ENE,59,4.0,5.0,79,0.00,,,0.07,,2013-07-20 07:54:00,
2013-07-20 01:01:00,65.0,56.0,30.27,NNE,26,5.0,8.0,74,0.00,,,0.07,,2013-07-20 08:01:00,
2013-07-20 01:52:00,65.0,56.0,30.25,NE,35,1.0,5.0,73,0.00,,,0.07,,2013-07-20 08:52:00,
2013-07-20 02:01:00,64.0,56.0,30.24,North,0,0.0,3.0,74,0.00,,,0.07,,2013-07-20 09:01:00,
2013-07-20 02:11:00,64.0,56.0,30.24,North,0,0.0,2.0,76,0.00,,,0.07,,2013-07-20 09:11:00,
2013-07-20 02:33:00,63.0,56.0,30.24,North,0,0.0,3.0,79,0.00,,,0.07,,2013-07-20 09:33:00,
2013-07-20 02:43:00,61.0,55.0,30.24,North,0,0.0,0.0,81,0.00,,,0.07,,2013-07-20 09:43:00,
2013-07-20 02:53:00,61.0,55.0,30.24,North,0,0.0,0.0,81,0.00,,,0.07,,2013-07-20 09:53:00,
2013-07-20 03:01:00,60.0,55.0,30.23,North,0,0.0,2.0,84,0.00,,,0.07,,2013-07-20 10:01:00,
2013-07-20 03:11:00,60.0,55.0,30.22,North,0,0.0,5.0,85,0.00,,,0.07,,2013-07-20 10:11:00,
2013-07-20 03:21:00,60.0,56.0,30.22,North,0,0.0,3.0,86,0.00,,,0.07,,2013-07-20 10:21:00,
2013-07-20 03:32:00,61.0,57.0,30.22,North,0,0.0,2.0,86,0.00,,,0.07,,2013-07-20 10:32:00,
2013-07-20 03:42:00,61.0,56.0,30.22,North,0,0.0,2.0,85,0.00,,,0.07,,2013-07-20 10:42:00,
2013-07-20 03:52:00,61.0,56.0,30.21,SSE,147,1.0,2.0,85,0.00,,,0.07,,2013-07-20 10:52:00,
2013-07-20 04:01:00,61.0,56.0,30.21,SSE,147,1.0,2.0,85,0.00,,,0.07,,2013-07-20 11:01:00,
2013-07-20 04:11:00,61.0,56.0,30.21,North,0,0.0,1.0,84,0.00,,,0.07,,2013-07-20 11:11:00,
2013-07-20 04:21:00,60.0,55.0,30.20,North,0,0.0,0.0,85,0.00,,,0.07,,2013-07-20 11:21:00,
2013-07-20 04:32:00,60.0,56.0,30.20,North,0,0.0,0.0,86,0.00,,,0.07,,2013-07-20 11:32:00,
2013-07-20 04:43:00,59.0,55.0,30.20,North,0,0.0,0.0,87,0.00,,,0.07,,2013-07-20 11:43:00,
2013-07-20 04:52:00,59.0,55.0,30.20,North,0,0.0,0.0,87,0.00,,,0.07,,2013-07-20 11:52:00,
2013-07-20 05:01:00,59.0,56.0,30.20,North,0,0.0,0.0,89,0.00,,,0.07,,2013-07-20 12:01:00,
2013-07-20 05:11:00,59.0,56.0,30.20,North,0,0.0,0.0,89,0.00,,,0.07,,2013-07-20 12:11:00,
2013-07-20 05:32:00,59.0,56.0,30.22,North,0,0.0,2.0,89,0.00,,,0.07,,2013-07-20 12:32:00,
2013-07-20 05:52:00,58.0,55.0,30.22,North,0,0.0,5.0,89,0.00,,,0.07,,2013-07-20 12:52:00,
2013-07-20 06:01:00,58.0,55.0,30.22,North,0,0.0,5.0,89,0.00,,,0.07,,2013-07-20 13:01:00,
2013-07-20 06:11:00,58.0,55.0,30.22,North,0,0.0,2.0,90,0.00,,,0.07,,2013-07-20 13:11:00,
2013-07-20 06:22:00,58.0,55.0,30.23,North,0,0.0,0.0,90,0.00,,,0.07,,2013-07-20 13:22:00,
2013-07-20 06:43:00,58.0,55.0,30.23,North,0,0.0,1.0,90,0.00,,,0.07,,2013-07-20 13:43:00,
2013-07-20 06:52:00,58.0,55.0,30.24,North,0,0.0,2.0,91,0.00,,,0.07,,2013-07-20 13:52:00,
2013-07-20 07:02:00,58.0,55.0,30.24,North,0,0.0,2.0,91,0.00,,,0.07,,2013-07-20 14:02:00,
2013-07-20 07:53:00,62.0,58.0,30.25,North,0,0.0,0.0,87,0.00,,,0.07,,2013-07-20 14:53:00,
2013-07-20 08:22:00,66.0,56.0,30.26,North,0,0.0,1.0,70,0.00,,,0.07,,2013-07-20 15:22:00,
2013-07-20 08:33:00,68.0,55.0,30.26,North,0,0.0,3.0,64,0.00,,,0.07,,2013-07-20 15:33:00,
2013-07-20 08:44:00,68.0,55.0,30.26,North,0,0.0,3.0,64,0.00,,,0.07,,2013-07-20 15:44:00,
2013-07-20 08:52:00,70.0,56.0,30.26,North,0,0.0,4.0,61,0.00,,,0.07,,2013-07-20 15:52:00,
2013-07-20 09:01:00,71.0,56.0,30.26,North,0,0.0,5.0,60,0.00,,,0.07,,2013-07-20 16:01:00,
2013-07-20 09:11:00,71.0,56.0,30.26,North,0,0.0,5.0,60,0.00,,,0.07,,2013-07-20 16:11:00,
2013-07-20 09:22:00,71.0,56.0,30.26,North,0,0.0,5.0,60,0.00,,,0.07,,2013-07-20 16:22:00,
2013-07-20 09:32:00,71.0,56.0,30.26,North,0,0.0,5.0,60,0.00,,,0.07,,2013-07-20 16:32:00,
2013-07-20 09:43:00,73.0,55.0,30.25,ENE,58,2.0,5.0,53,0.00,,,0.07,,2013-07-20 16:43:00,
2013-07-20 09:52:00,74.0,55.0,30.25,North,351,1.0,8.0,52,0.00,,,0.07,,2013-07-20 16:52:00,
2013-07-20 10:02:00,74.0,54.0,30.25,NW,305,5.0,9.0,50,0.00,,,0.07,,2013-07-20 17:02:00,
2013-07-20 10:11:00,74.0,54.0,30.25,NW,305,5.0,9.0,50,0.00,,,0.07,,2013-07-20 17:11:00,
2013-07-20 10:22:00,74.0,55.0,30.25,North,354,1.0,9.0,51,0.00,,,0.07,,2013-07-20 17:22:00,
2013-07-20 10:32:00,74.0,55.0,30.25,North,354,1.0,9.0,51,0.00,,,0.07,,2013-07-20 17:32:00,
2013-07-20 10:43:00,75.0,56.0,30.25,ENE,77,10.0,17.0,51,0.00,,,0.07,,2013-07-20 17:43:00,
2013-07-20 10:53:00,75.0,56.0,30.25,ENE,77,10.0,17.0,51,0.00,,,0.07,,2013-07-20 17:53:00,
2013-07-20 11:01:00,75.0,56.0,30.25,ENE,77,10.0,17.0,51,0.00,,,0.07,,2013-07-20 18:01:00,
2013-07-20 11:11:00,75.0,56.0,30.25,ENE,77,10.0,17.0,51,0.00,,,0.07,,2013-07-20 18:11:00,
2013-07-20 11:22:00,78.0,56.0,30.24,NNE,24,4.0,12.0,46,0.00,,,0.07,,2013-07-20 18:22:00,
2013-07-20 11:36:00,77.0,56.0,30.24,North,9,9.0,15.0,48,0.00,,,0.07,,2013-07-20 18:36:00,
2013-07-20 11:47:00,77.0,56.0,30.24,North,9,9.0,15.0,48,0.00,,,0.07,,2013-07-20 18:47:00,
2013-07-20 12:01:00,77.0,54.0,30.23,NE,43,6.0,12.0,45,0.00,,,0.07,,2013-07-20 19:01:00,
2013-07-20 12:12:00,78.0,51.0,30.23,North,358,9.0,14.0,39,0.00,,,0.07,,2013-07-20 19:12:00,
2013-07-20 12:23:00,78.0,51.0,30.23,North,358,9.0,14.0,39,0.00,,,0.07,,2013-07-20 19:23:00,
2013-07-20 12:32:00,78.0,51.0,30.23,North,358,9.0,14.0,39,0.00,,,0.07,,2013-07-20 19:32:00,
2013-07-20 12:43:00,80.0,53.0,30.22,North,9,9.0,14.0,40,0.00,,,0.07,,2013-07-20 19:43:00,
2013-07-20 12:52:00,80.0,53.0,30.22,North,9,9.0,14.0,40,0.00,,,0.07,,2013-07-20 19:52:00,
2013-07-20 13:02:00,80.0,53.0,30.22,North,9,9.0,14.0,40,0.00,,,0.07,,2013-07-20 20:02:00,
2013-07-20 13:12:00,79.0,53.0,30.19,NNW,348,6.0,13.0,40,0.00,,,0.07,,2013-07-20 20:12:00,
2013-07-20 13:32:00,80.0,53.0,30.18,NNE,13,5.0,12.0,39,0.00,,,0.07,,2013-07-20 20:32:00,
2013-07-20 13:43:00,80.0,53.0,30.17,North,10,4.0,9.0,39,0.00,,,0.07,,2013-07-20 20:43:00,
2013-07-20 13:52:00,80.0,53.0,30.17,North,10,4.0,9.0,39,0.00,,,0.07,,2013-07-20 20:52:00,
2013-07-20 14:02:00,80.0,53.0,30.17,North,10,4.0,9.0,39,0.00,,,0.07,,2013-07-20 21:02:00,
2013-07-20 14:11:00,80.0,53.0,30.17,North,10,4.0,9.0,39,0.00,,,0.07,,2013-07-20 21:11:00,
2013-07-20 14:35:00,80.0,51.0,30.17,WSW,243,4.0,10.0,37,0.00,,,0.07,,2013-07-20 21:35:00,
2013-07-20 14:55:00,80.0,51.0,30.17,WSW,243,4.0,10.0,37,0.00,,,0.07,,2013-07-20 21:55:00,
2013-07-20 15:11:00,80.0,51.0,30.17,WSW,243,4.0,10.0,37,0.00,,,0.07,,2013-07-20 22:11:00,
2013-07-20 15:36:00,76.0,59.0,30.14,SW,225,7.0,15.0,55,0.00,,,0.07,,2013-07-20 22:36:00,
2013-07-20 15:48:00,75.0,58.0,30.16,WSW,258,7.0,15.0,55,0.00,,,0.07,,2013-07-20 22:48:00,
2013-07-20 15:55:00,75.0,58.0,30.16,WSW,258,7.0,15.0,55,0.00,,,0.07,,2013-07-20 22:55:00,
2013-07-20 16:11:00,77.0,57.0,30.15,WSW,251,5.0,13.0,50,0.00,,,0.07,,2013-07-20 23:11:00,
2013-07-20 16:22:00,77.0,57.0,30.15,WSW,251,5.0,13.0,50,0.00,,,0.07,,2013-07-20 23:22:00,
2013-07-20 16:34:00,77.0,57.0,30.15,WSW,251,5.0,13.0,50,0.00,,,0.07,,2013-07-20 23:34:00,
2013-07-20 16:43:00,77.0,57.0,30.15,WSW,251,5.0,13.0,50,0.00,,,0.07,,2013-07-20 23:43:00,
2013-07-20 16:53:00,77.0,57.0,30.15,WSW,251,5.0,13.0,50,0.00,,,0.07,,2013-07-20 23:53:00,
2013-07-20 17:05:00,76.0,57.0,30.14,WSW,242,7.0,13.0,51,0.00,,,0.07,,2013-07-21 00:05:00,
2013-07-20 17:14:00,76.0,57.0,30.14,WSW,242,7.0,13.0,51,0.00,,,0.07,,2013-07-21 00:14:00,
2013-07-20 17:22:00,76.0,57.0,30.14,WSW,242,7.0,13.0,51,0.00,,,0.07,,2013-07-21 00:22:00,
2013-07-20 17:42:00,76.0,57.0,30.13,SW,231,8.0,15.0,51,0.00,,,0.04,,2013-07-21 00:42:00,
2013-07-20 17:56:00,76.0,57.0,30.13,SW,231,8.0,15.0,51,0.00,,,0.04,,2013-07-21 00:56:00,
2013-07-20 18:03:00,76.0,58.0,30.11,WSW,248,6.0,12.0,54,0.00,,,0.03,,2013-07-21 01:03:00,
2013-07-20 18:11:00,76.0,58.0,30.11,WSW,248,6.0,12.0,54,0.00,,,0.03,,2013-07-21 01:11:00,
2013-07-20 18:44:00,-999.0,-99.9,30.14,SW,226,5.0,13.0,-999,0.00,,,-99.99,,2013-07-21 01:44:00,
2013-07-20 18:52:00,77.0,57.0,30.14,SW,226,5.0,13.0,51,0.00,,,0.01,,2013-07-21 01:52:00,
2013-07-20 19:02:00,76.0,60.0,30.14,WSW,241,6.0,17.0,58,0.00,,,0.00,,2013-07-21 02:02:00,
2013-07-20 19:11:00,76.0,60.0,30.14,WSW,241,6.0,17.0,58,0.00,,,0.00,,2013-07-21 02:11:00,
2013-07-20 19:23:00,76.0,60.0,30.14,WSW,241,6.0,17.0,58,0.00,,,0.00,,2013-07-21 02:23:00,
2013-07-20 19:33:00,72.0,61.0,30.13,South,178,4.0,10.0,69,0.00,,,0.00,,2013-07-21 02:33:00,
2013-07-20 19:42:00,71.0,61.0,30.12,SW,214,7.0,13.0,70,0.00,,,0.00,,2013-07-21 02:42:00,
2013-07-20 19:56:00,71.0,61.0,30.12,SW,224,8.0,13.0,70,0.00,,,0.00,,2013-07-21 02:56:00,
2013-07-20 20:02:00,71.0,61.0,30.16,SSE,161,8.0,15.0,70,0.00,,,0.00,,2013-07-21 03:02:00,
2013-07-20 20:32:00,65.0,60.0,30.18,SSE,156,7.0,11.0,83,0.00,,,0.00,,2013-07-21 03:32:00,
2013-07-20 21:11:00,61.0,59.0,30.24,South,184,4.0,9.0,93,0.03,,,0.03,,2013-07-21 04:11:00,
2013-07-20 21:32:00,62.0,60.0,30.25,WSW,254,6.0,11.0,92,0.04,,,0.04,,2013-07-21 04:32:00,
2013-07-20 21:43:00,62.0,60.0,30.24,WSW,251,4.0,9.0,92,0.05,,,0.06,,2013-07-21 04:43:00,
2013-07-20 21:53:00,62.0,60.0,30.24,WSW,251,4.0,9.0,92,0.05,,,0.06,,2013-07-21 04:53:00,
2013-07-20 22:01:00,63.0,60.0,30.23,SW,229,3.0,9.0,89,0.05,,,0.08,,2013-07-21 05:01:00,
2013-07-20 22:11:00,63.0,60.0,30.23,SW,229,3.0,9.0,89,0.05,,,0.08,,2013-07-21 05:11:00,
2013-07-20 22:32:00,62.0,58.0,30.23,SW,227,4.0,8.0,88,0.09,,,0.13,,2013-07-21 05:32:00,
2013-07-20 22:42:00,62.0,60.0,30.25,NNW,348,4.0,7.0,92,0.11,,,0.17,,2013-07-21 05:42:00,
2013-07-20 22:52:00,62.0,59.0,30.24,North,1,1.0,7.0,91,0.11,,,0.18,,2013-07-21 05:52:00,
2013-07-20 23:01:00,62.0,59.0,30.24,North,0,0.0,5.0,91,0.13,,,0.20,,2013-07-21 06:01:00,
2013-07-20 23:11:00,62.0,59.0,30.25,North,9,3.0,6.0,90,0.12,,,0.21,,2013-07-21 06:11:00,
2013-07-20 23:21:00,62.0,59.0,30.26,North,355,4.0,7.0,90,0.12,,,0.24,,2013-07-21 06:21:00,
2013-07-20 23:43:00,62.0,-99.9,30.25,North,349,6.0,13.0,-999,0.11,,,0.26,,2013-07-21 06:43:00,
2013-07-20 23:53:00,62.0,-99.9,30.25,North,349,6.0,13.0,-999,0.11,,,0.26,,2013-07-21 06:53:00,